Location: Dessau
(51.7984°N, 12.2168°E)
Time: 22:41:54
(UTC+01:00)

N. Korean satellite - Visible Passes

Search period start: 18 November 2017 00:00
Search period end: 28 November 2017 00:00
Orbit: 460 x 515 km, 97.2° (Epoch: 17 November)

Date Brightness Start Highest point End Pass type
(mag) Time Alt. Az. Time Alt. Az. Time Alt. Az.
18 Nov 9.4 06:18:18 10° NE 06:21:19 23° E 06:24:20 10° SSE visible
18 Nov 7.8 17:00:17 10° ESE 17:02:58 21° ENE 17:05:40 10° NNE visible
18 Nov 8.0 18:33:00 10° SSW 18:36:17 37° W 18:39:39 10° NNW visible
19 Nov 10.0 05:55:40 10° ENE 05:57:38 14° E 05:59:36 10° ESE visible
19 Nov 6.8 18:09:14 10° S 18:12:44 71° WSW 18:16:20 10° NNW visible
20 Nov 6.5 17:45:47 10° SSE 17:49:15 62° ENE 17:52:50 10° N visible
20 Nov 9.9 19:21:35 10° WSW 19:23:13 13° W 19:24:51 10° WNW visible
21 Nov 8.3 06:41:00 10° NNE 06:44:32 39° E 06:48:05 10° SSE visible
21 Nov 7.1 17:22:38 10° SE 17:25:52 34° ENE 17:29:10 10° N visible
21 Nov 9.1 18:56:42 10° SW 18:59:30 22° W 19:02:21 10° NW visible
22 Nov 9.4 06:17:52 10° NE 06:20:55 23° E 06:23:58 10° SSE visible
22 Nov 7.8 16:59:49 10° ESE 17:02:32 21° ENE 17:05:18 10° NNE visible
22 Nov 8.0 18:32:32 10° SSW 18:35:51 38° W 18:39:15 10° NNW visible
23 Nov 10.0 05:55:13 10° NE 05:57:13 14° E 05:59:13 10° ESE visible
23 Nov 6.8 18:08:45 10° S 18:12:17 71° WSW 18:15:55 10° NNW visible
24 Nov 7.0 07:03:53 10° NNE 07:07:39 72° ESE 07:11:25 10° S visible
24 Nov 6.5 17:45:17 10° SSE 17:48:48 62° ENE 17:52:24 10° N visible
24 Nov 9.9 19:21:02 10° WSW 19:22:44 13° W 19:24:28 10° WNW visible
25 Nov 8.3 06:40:32 10° NNE 06:44:06 39° E 06:47:40 10° SSE visible
25 Nov 7.2 17:22:07 10° SE 17:25:22 34° ENE 17:28:43 10° N visible
25 Nov 9.1 18:56:10 10° SW 18:59:00 22° W 19:01:55 10° NW visible
26 Nov 9.4 06:17:23 10° NE 06:20:27 23° E 06:23:31 10° SSE visible
26 Nov 7.8 16:59:17 10° ESE 17:02:02 21° ENE 17:04:51 10° NNE visible
26 Nov 8.0 18:31:59 10° SSW 18:35:21 38° W 18:38:48 10° NNW visible
27 Nov 10.0 05:54:43 10° NE 05:56:44 14° E 05:58:44 10° ESE visible
27 Nov 6.8 18:08:11 10° S 18:11:46 72° WSW 18:15:26 10° NNW visible
